Change the Weather History Date:

Thursday, January 31, 2013

  Actual Average (KRHI) Record (KRHI)
Temperature  
Mean Temperature 5 °F 13 °F  
Max Temperature 10 °F 22 °F 46 °F (1952)
Min Temperature 0 °F 4 °F -33 °F (1996)
Degree Days  
Heating Degree Days 60 52  
Month to date heating degree days 1635  
Since 1 July heating degree days 5261  
Cooling Degree Days 0 0  
Month to date cooling degree days 0  
Year to date cooling degree days 0  
Moisture  
Dew Point -1 °F    
Average Humidity 74    
Maximum Humidity 85    
Minimum Humidity 62    
Precipitation  
Precipitation 0.01 in 0.03 in 0.26 in (1981)
Month to date precipitation 1.11  
Year to date precipitation 1.11  
Snow  
Snow 0.00 in - 5.50 in (2002)
Month to date snowfall  
Since 1 July snowfall  
Snow Depth -    
Sea Level Pressure  
Sea Level Pressure 29.74 in    
Wind  
Wind Speed 11 mph (WNW)    
Max Wind Speed 16 mph    
Max Gust Speed 23 mph    
Visibility 9 miles    
Events Snow    
T = Trace of Precipitation, MM = Missing Value Source: NWS Daily Summary

Daily Weather History Graph

Daily Weather History Graph

Search for Another Location

Airport or City:

Trip Planner

Search our weather history database for the weather conditions in past years. The results will help you decide how hot, cold, wet, or windy it might be!

Date:

Astronomy

Jan. 31, 2013 Rise Set
Actual Time 7:21 AM CST 5:05 PM CST
Civil Twilight 6:49 AM CST 5:36 PM CST
Nautical Twilight 6:13 AM CST 6:12 PM CST
Astronomical Twilight 5:39 AM CST 6:46 PM CST
Moon 10:25 PM CST (1/31) 9:04 AM CST (1/31)
Length of Visible Light 10h 47m
Length of Day
9h 43m
Waning Gibbous, 79% of the Moon is Illuminated
Jan 31
Waning Gibbous
Feb 3
Last Quarter
Feb 10
New
Feb 17
First Quarter
Feb 25
Full

Hourly Weather History & Observations

Time (CST) Temp. Windchill Dew Point Humidity Pressure Visibility Wind Dir Wind Speed Gust Speed Precip Events Conditions
12:15 AM 10.4 °F -4.8 °F 5.0 °F 79% 29.49 in 10.0 mi WNW 12.7 mph 18.4 mph N/A   Overcast
12:35 AM 10.4 °F -4.1 °F 5.0 °F 79% 29.50 in 10.0 mi West 11.5 mph - N/A   Overcast
12:55 AM 10.4 °F -4.1 °F 5.0 °F 79% 29.50 in 10.0 mi WNW 11.5 mph - N/A Snow Light Snow
1:15 AM 10.4 °F -3.3 °F 5.0 °F 79% 29.51 in 10.0 mi West 10.4 mph 16.1 mph N/A   Overcast
1:35 AM 10.4 °F -6.0 °F 5.0 °F 79% 29.52 in 10.0 mi WNW 15.0 mph 19.6 mph N/A   Overcast
1:55 AM 8.6 °F -5.5 °F 3.2 °F 79% 29.53 in 10.0 mi West 10.4 mph 17.3 mph N/A   Overcast
2:15 AM 8.6 °F -6.3 °F 3.2 °F 79% 29.54 in 10.0 mi West 11.5 mph 17.3 mph 0.01 in   Overcast
2:35 AM 8.6 °F -3.7 °F 3.2 °F 79% 29.54 in 10.0 mi WNW 8.1 mph - 0.01 in   Overcast
2:55 AM 8.6 °F -7.7 °F 3.2 °F 79% 29.55 in 10.0 mi West 13.8 mph 18.4 mph 0.01 in   Overcast
3:15 AM 8.6 °F -6.3 °F 3.2 °F 79% 29.55 in 10.0 mi West 11.5 mph 19.6 mph N/A   Overcast
3:35 AM 8.6 °F -6.3 °F 3.2 °F 79% 29.55 in 10.0 mi West 11.5 mph 18.4 mph N/A   Overcast
3:55 AM 8.6 °F -7.0 °F 3.2 °F 79% 29.55 in 10.0 mi WNW 12.7 mph 21.9 mph N/A   Overcast
4:15 AM 8.6 °F -7.0 °F 1.4 °F 73% 29.56 in 10.0 mi West 12.7 mph - N/A   Overcast
4:35 AM 8.6 °F -4.7 °F 1.4 °F 73% 29.57 in 10.0 mi West 9.2 mph - N/A   Overcast
4:55 AM 6.8 °F -6.9 °F 1.4 °F 79% 29.57 in 10.0 mi West 9.2 mph - N/A   Overcast
5:15 AM 6.8 °F -8.6 °F 1.4 °F 79% 29.57 in 10.0 mi West 11.5 mph 16.1 mph N/A   Overcast
5:35 AM 6.8 °F -6.9 °F 1.4 °F 79% 29.58 in 10.0 mi West 9.2 mph 19.6 mph N/A   Overcast
5:55 AM 5.0 °F -9.1 °F 1.4 °F 85% 29.59 in 10.0 mi West 9.2 mph - N/A   Overcast
6:15 AM 5.0 °F -12.3 °F -0.4 °F 78% 29.59 in 10.0 mi West 13.8 mph 17.3 mph N/A   Overcast
6:35 AM 3.2 °F -11.3 °F -0.4 °F 85% 29.60 in 10.0 mi WNW 9.2 mph 17.3 mph N/A   Scattered Clouds
6:55 AM 3.2 °F -10.3 °F -2.2 °F 78% 29.61 in 10.0 mi WNW 8.1 mph - N/A   Clear
7:15 AM 3.2 °F -12.2 °F -2.2 °F 78% 29.62 in 10.0 mi West 10.4 mph - N/A   Clear
7:35 AM 1.4 °F -12.5 °F -4.0 °F 78% 29.63 in 10.0 mi West 8.1 mph - N/A   Clear
7:55 AM 1.4 °F -13.5 °F -4.0 °F 78% 29.64 in 10.0 mi West 9.2 mph - N/A   Clear
8:15 AM 1.4 °F -14.5 °F -4.0 °F 78% 29.64 in 10.0 mi West 10.4 mph - N/A   Clear
8:35 AM 3.2 °F -12.2 °F -2.2 °F 78% 29.65 in 10.0 mi West 10.4 mph - N/A   Clear
8:55 AM 5.0 °F -12.3 °F -0.4 °F 78% 29.66 in 10.0 mi West 13.8 mph 18.4 mph N/A   Clear
9:15 AM 5.0 °F -12.3 °F -0.4 °F 78% 29.67 in 10.0 mi West 13.8 mph 18.4 mph N/A   Clear
9:35 AM 6.8 °F -6.9 °F -0.4 °F 72% 29.68 in 10.0 mi WNW 9.2 mph 19.6 mph N/A   Clear
9:55 AM 6.8 °F -7.8 °F -0.4 °F 72% 29.69 in 10.0 mi WNW 10.4 mph 19.6 mph N/A   Clear
10:15 AM 8.6 °F -8.3 °F -0.4 °F 67% 29.70 in 10.0 mi WNW 15.0 mph 19.6 mph N/A   Clear
10:35 AM 8.6 °F -7.0 °F -0.4 °F 67% 29.70 in 10.0 mi WNW 12.7 mph - N/A   Scattered Clouds
10:55 AM 10.4 °F -4.8 °F -0.4 °F 62% 29.71 in 10.0 mi WNW 12.7 mph 20.7 mph N/A   Mostly Cloudy
11:15 AM 8.6 °F -7.0 °F -0.4 °F 67% 29.71 in 10.0 mi NW 12.7 mph 20.7 mph N/A   Scattered Clouds
11:35 AM 10.4 °F -6.6 °F -0.4 °F 62% 29.71 in 10.0 mi WNW 16.1 mph 23.0 mph N/A   Scattered Clouds
11:55 AM 10.4 °F -5.4 °F -0.4 °F 62% 29.71 in 10.0 mi NW 13.8 mph 19.6 mph N/A   Mostly Cloudy
12:15 PM 10.4 °F -2.4 °F 1.4 °F 67% 29.72 in 5.0 mi WNW 9.2 mph - N/A   Haze
12:35 PM 10.4 °F -4.8 °F 1.4 °F 67% 29.73 in 7.0 mi WNW 12.7 mph 19.6 mph N/A   Overcast
12:55 PM 10.4 °F -6.0 °F 1.4 °F 67% 29.73 in 3.0 mi West 15.0 mph 19.6 mph N/A   Haze
1:15 PM 10.4 °F -5.4 °F 1.4 °F 67% 29.73 in 3.0 mi WNW 13.8 mph 19.6 mph N/A   Haze
1:35 PM 10.4 °F -4.1 °F 1.4 °F 67% 29.74 in 7.0 mi WNW 11.5 mph 19.6 mph N/A   Overcast
1:55 PM 10.4 °F -4.8 °F -0.4 °F 62% 29.75 in 7.0 mi NW 12.7 mph 18.4 mph N/A   Overcast
2:15 PM 10.4 °F -4.8 °F 1.4 °F 67% 29.76 in 3.0 mi NW 12.7 mph 20.7 mph N/A   Haze
2:35 PM 10.4 °F -4.1 °F -0.4 °F 62% 29.76 in 7.0 mi WNW 11.5 mph 17.3 mph N/A   Overcast
2:55 PM 10.4 °F -4.1 °F -0.4 °F 62% 29.77 in 7.0 mi WNW 11.5 mph 21.9 mph N/A   Overcast
3:15 PM 8.6 °F -6.3 °F 1.4 °F 73% 29.79 in 3.0 mi WNW 11.5 mph 20.7 mph N/A   Haze
3:35 PM 8.6 °F -6.3 °F -0.4 °F 67% 29.80 in 7.0 mi WNW 11.5 mph 18.4 mph N/A   Overcast
3:55 PM 8.6 °F -2.6 °F 1.4 °F 73% 29.81 in 3.0 mi NW 6.9 mph - N/A Snow Light Snow
4:15 PM 6.8 °F -8.6 °F -0.4 °F 72% 29.83 in 7.0 mi WNW 11.5 mph - N/A   Mostly Cloudy
4:35 PM 6.8 °F -9.3 °F -2.2 °F 67% 29.84 in 7.0 mi NW 12.7 mph 16.1 mph N/A   Mostly Cloudy
4:55 PM 5.0 °F -10.8 °F -4.0 °F 66% 29.85 in 10.0 mi WNW 11.5 mph - N/A   Mostly Cloudy
5:15 PM 5.0 °F -5.6 °F -4.0 °F 66% 29.86 in 7.0 mi WNW 5.8 mph - N/A   Overcast
5:35 PM 5.0 °F -8.1 °F -2.2 °F 72% 29.87 in 10.0 mi WNW 8.1 mph - N/A   Mostly Cloudy
5:55 PM 3.2 °F -9.1 °F -2.2 °F 78% 29.88 in 7.0 mi WNW 6.9 mph - N/A   Mostly Cloudy
6:15 PM 3.2 °F -9.1 °F -2.2 °F 78% 29.89 in 7.0 mi WNW 6.9 mph - N/A   Overcast
6:35 PM 3.2 °F -7.8 °F -2.2 °F 78% 29.90 in 4.0 mi WNW 5.8 mph - N/A   Haze
6:55 PM 3.2 °F -10.3 °F -0.4 °F 85% 29.91 in 7.0 mi WNW 8.1 mph - N/A   Mostly Cloudy
7:15 PM 3.2 °F -11.3 °F -2.2 °F 78% 29.92 in 7.0 mi West 9.2 mph 17.3 mph N/A   Mostly Cloudy
7:35 PM 3.2 °F -10.3 °F -4.0 °F 72% 29.92 in 7.0 mi West 8.1 mph - N/A   Mostly Cloudy
7:55 PM 3.2 °F -12.2 °F -4.0 °F 72% 29.93 in 7.0 mi WNW 10.4 mph - N/A   Overcast
8:15 PM 1.4 °F -12.5 °F -4.0 °F 78% 29.93 in 7.0 mi West 8.1 mph - N/A   Scattered Clouds
8:35 PM 1.4 °F -13.5 °F -4.0 °F 78% 29.94 in 10.0 mi WNW 9.2 mph - N/A   Clear
8:55 PM 1.4 °F -14.5 °F -4.0 °F 78% 29.95 in 10.0 mi WNW 10.4 mph - N/A   Scattered Clouds
9:15 PM 1.4 °F -12.5 °F -4.0 °F 78% 29.96 in 10.0 mi WNW 8.1 mph - N/A   Scattered Clouds
9:35 PM 1.4 °F -13.5 °F -5.8 °F 72% 29.96 in 10.0 mi WNW 9.2 mph - N/A   Scattered Clouds
9:55 PM 1.4 °F -12.5 °F -5.8 °F 72% 29.97 in 10.0 mi WNW 8.1 mph - N/A   Scattered Clouds
10:15 PM -0.4 °F -14.7 °F -5.8 °F 78% 29.97 in 10.0 mi West 8.1 mph - N/A   Scattered Clouds
10:35 PM -0.4 °F -15.7 °F -5.8 °F 78% 29.97 in 10.0 mi WNW 9.2 mph - N/A   Mostly Cloudy
10:55 PM -0.4 °F -14.7 °F -5.8 °F 78% 29.98 in 10.0 mi WNW 8.1 mph 16.1 mph N/A   Scattered Clouds
11:15 PM -0.4 °F -13.4 °F -5.8 °F 78% 29.98 in 10.0 mi WNW 6.9 mph - N/A   Scattered Clouds
11:35 PM -0.4 °F -13.4 °F -5.8 °F 78% 29.99 in 10.0 mi West 6.9 mph - N/A   Scattered Clouds
11:55 PM -0.4 °F -13.4 °F -7.6 °F 72% 29.99 in 10.0 mi West 6.9 mph - N/A   Clear